HB9KNR Weather Reports


Display with metric or nautical units.
time (UTC)temp
F
wind
direction
speed
MPH
gust
MPH
rain 1hr
in
rain 24hr
in
rain mn
in
humidity
%
barometer
mb
20260906150536 78 0.0 1.0 0.00 0.00 0.00 50 1023.7
20260906145516 78 0.0 0.0 0.00 0.00 0.00 49 1024.0
20260906144516 78 0.0 2.0 0.00 0.00 0.00 49 1024.0
20260906143515 77 0.0 0.0 0.00 0.00 0.00 50 1023.9
20260906142515 78 0.0 3.0 0.00 0.00 0.00 50 1024.0
20260906141515 78 0.0 4.0 0.00 0.00 0.00 50 1024.1
20260906140515 78 0.0 2.0 0.00 0.00 0.00 50 1024.2
20260906135516 78 0.0 1.0 0.00 0.00 0.00 50 1024.4
20260906134515 78 0.0 1.0 0.00 0.00 0.00 51 1024.7
20260906133515 78 248 1.0 4.0 0.00 0.00 0.00 50 1024.7
20260906132515 78 0.0 4.0 0.00 0.00 0.00 49 1024.7
20260906131535 77 0.0 1.0 0.00 0.00 0.00 53 1024.8
20260906130515 77 0.0 1.0 0.00 0.00 0.00 51 1024.9
20260906125536 77 0.0 3.0 0.00 0.00 0.00 50 1025.0
20260906124515 77 0.0 2.0 0.00 0.00 0.00 52 1025.0
20260906123515 77 0.0 2.0 0.00 0.00 0.00 52 1025.0
20260906122515 77 225 1.0 3.0 0.00 0.00 0.00 52 1025.1
20260906121515 76 0.0 3.0 0.00 0.00 0.00 54 1025.0
20260906120515 76 0.0 3.0 0.00 0.00 0.00 54 1025.1
20260906115515 76 0.0 2.0 0.00 0.00 0.00 54 1025.4
20260906114518 76 0.0 1.0 0.00 0.00 0.00 55 1025.4
20260906113517 76 0.0 2.0 0.00 0.00 0.00 54 1025.5
20260906112517 75 0.0 1.0 0.00 0.01 0.00 57 1025.6
20260906111517 75 0.0 2.0 0.00 0.01 0.00 56 1025.7
20260906110617 75 0.0 3.0 0.00 0.01 0.00 58 1025.8
20260906105517 74 0.0 3.0 0.00 0.01 0.00 57 1025.9
20260906104517 74 0.0 1.0 0.00 0.01 0.00 57 1025.9
20260906103517 74 0.0 2.0 0.00 0.01 0.00 58 1026.0
20260906102517 73 0.0 4.0 0.00 0.01 0.00 60 1026.2
20260906101517 73 0.0 6.0 0.00 0.01 0.00 60 1026.3
20260906100517 72 0.0 1.0 0.00 0.01 0.00 60 1026.2
20260906095517 71 0.0 2.0 0.00 0.01 0.00 63 1026.3
20260906094517 71 0.0 0.0 0.00 0.01 0.00 64 1026.4
20260906093517 69 0.0 3.0 0.00 0.01 0.00 63 1026.4
20260906092517 69 0.0 2.0 0.00 0.01 0.00 65 1026.6
20260906091517 69 0.0 2.0 0.00 0.01 0.00 65 1026.5
20260906090537 68 0.0 1.0 0.00 0.01 0.00 66 1026.5
20260906085538 67 0.0 0.0 0.00 0.01 0.00 67 1026.5
20260906084537 67 0.0 0.0 0.00 0.01 0.00 69 1026.5
20260906083517 66 0.0 0.0 0.00 0.01 0.00 71 1026.6
20260906082517 65 0.0 0.0 0.00 0.01 0.00 71 1026.4
20260906081537 65 0.0 1.0 0.00 0.01 0.00 72 1026.5
20260906080537 65 0.0 0.0 0.00 0.01 0.00 72 1026.5
20260906075517 64 0.0 0.0 0.00 0.01 0.00 79 1026.6
20260906074517 63 0.0 0.0 0.00 0.01 0.00 83 1026.6
20260906073517 62 0.0 0.0 0.00 0.01 0.00 87 1026.7
20260906072517 62 0.0 2.0 0.00 0.01 0.00 90 1026.6
20260906071517 61 0.0 0.0 0.00 0.01 0.00 93 1026.7
20260906070517 60 0.0 0.0 0.00 0.01 0.00 93 1026.6
20260906065517 59 0.0 0.0 0.00 0.02 0.00 93 1026.4
20260906064517 59 0.0 1.0 0.00 0.02 0.00 94 1026.4
20260906063537 58 0.0 0.0 0.00 0.02 0.00 94 1026.3
20260906062517 58 0.0 0.0 0.00 0.02 0.00 94 1026.1
20260906061517 56 0.0 0.0 0.00 0.02 0.00 94 1025.9
20260906060517 55 0.0 0.0 0.00 0.02 0.00 93 1026.1
20260906055517 55 0.0 0.0 0.00 0.02 0.00 92 1026.0
20260906054517 54 0.0 0.0 0.00 0.02 0.00 92 1025.8
20260906053517 54 0.0 0.0 0.00 0.02 0.00 92 1025.9
20260906052517 54 0.0 0.0 0.00 0.02 0.00 91 1025.8
20260906051517 55 0.0 0.0 0.00 0.02 0.00 91 1025.9
20260906050537 55 0.0 0.0 0.00 0.02 0.00 91 1025.8
20260906045517 55 0.0 0.0 0.00 0.02 0.00 91 1025.8
20260906044517 55 0.0 0.0 0.00 0.02 0.00 91 1025.7
20260906043537 55 0.0 0.0 0.00 0.02 0.00 91 1025.7
20260906042517 56 0.0 0.0 0.00 0.02 0.00 91 1025.7
20260906041517 56 0.0 0.0 0.00 0.02 0.00 91 1025.7
20260906040517 57 0.0 0.0 0.00 0.02 0.00 91 1025.8
20260906035517 57 0.0 0.0 0.00 0.02 0.00 91 1025.9
20260906034517 57 0.0 0.0 0.00 0.02 0.00 91 1025.9
20260906033517 58 0.0 0.0 0.00 0.02 0.00 91 1025.8
20260906032517 58 0.0 0.0 0.00 0.02 0.00 91 1025.8
20260906031517 59 0.0 0.0 0.00 0.02 0.00 91 1025.8
20260906030517 59 0.0 0.0 0.00 0.02 0.00 92 1025.9
20260906025517 59 0.0 0.0 0.00 0.02 0.00 92 1025.8
20260906024537 59 0.0 0.0 0.00 0.02 0.00 92 1025.8
20260906023517 59 0.0 0.0 0.00 0.02 0.00 92 1025.7
20260906022517 59 0.0 0.0 0.00 0.02 0.00 92 1025.7
20260906021517 59 0.0 0.0 0.00 0.02 0.00 91 1025.6
20260906020517 59 0.0 0.0 0.00 0.02 0.00 91 1025.7
20260906015517 59 0.0 0.0 0.00 0.02 0.00 91 1025.8
20260906014517 59 0.0 0.0 0.00 0.02 0.00 91 1025.7
20260906013517 59 0.0 0.0 0.00 0.02 0.00 91 1025.6
20260906012517 59 0.0 0.0 0.00 0.02 0.00 91 1025.7
20260906011517 59 0.0 0.0 0.00 0.02 0.00 91 1025.7
20260906010517 59 0.0 0.0 0.00 0.02 0.00 91 1025.6
20260906005517 59 0.0 0.0 0.00 0.02 0.00 91 1025.8
20260906004517 59 0.0 0.0 0.00 0.02 0.00 90 1025.8
20260906003517 59 0.0 0.0 0.00 0.02 0.00 90 1025.8
20260906002517 59 0.0 0.0 0.00 0.02 0.00 90 1025.6
20260906001537 59 0.0 0.0 0.00 0.02 0.00 90 1025.6
20260906000517 59 0.0 0.0 0.00 0.02 0.00 90 1025.7
20260905235517 59 0.0 0.0 0.00 0.02 0.00 90 1025.7
20260905234537 60 0.0 0.0 0.00 0.02 0.00 89 1025.8
20260905233517 60 0.0 0.0 0.00 0.02 0.00 89 1025.7
20260905232537 60 0.0 0.0 0.00 0.02 0.00 89 1025.7
20260905231517 60 0.0 0.0 0.00 0.02 0.00 89 1025.7
20260905230537 60 0.0 0.0 0.00 0.02 0.00 89 1025.7
20260905225516 60 0.0 0.0 0.00 0.02 0.00 89 1025.9
20260905224536 60 0.0 0.0 0.00 0.02 0.00 88 1025.8
20260905223517 60 0.0 0.0 0.00 0.02 0.00 88 1025.8
20260905222517 60 0.0 0.0 0.00 0.02 0.00 88 1025.8
20260905221516 61 0.0 0.0 0.00 0.02 0.00 88 1025.8
20260905220517 61 0.0 0.0 0.00 0.02 0.00 88 1025.7
20260905215517 61 0.0 0.0 0.00 0.02 0.02 87 1025.7
20260905214517 61 0.0 0.0 0.00 0.02 0.02 87 1025.7
20260905213517 62 0.0 0.0 0.00 0.02 0.02 88 1025.7
20260905212557 62 0.0 0.0 0.00 0.02 0.02 87 1025.7
20260905211517 62 0.0 0.0 0.00 0.02 0.02 87 1025.6
20260905210517 62 0.0 0.0 0.00 0.02 0.02 87 1025.4
20260905205537 62 0.0 0.0 0.00 0.02 0.02 87 1025.4
20260905204557 62 0.0 0.0 0.00 0.02 0.02 86 1025.3
20260905203517 62 0.0 0.0 0.00 0.02 0.02 86 1025.4
20260905202517 63 0.0 0.0 0.00 0.02 0.02 85 1025.3
20260905201517 63 0.0 0.0 0.00 0.02 0.02 85 1025.3
20260905200517 63 0.0 0.0 0.00 0.02 0.02 85 1025.2
20260905195537 63 0.0 0.0 0.00 0.02 0.02 84 1025.2
20260905194517 64 0.0 0.0 0.00 0.02 0.02 84 1025.1
20260905193515 64 0.0 0.0 0.00 0.02 0.02 83 1025.0
20260905192517 64 0.0 0.0 0.00 0.02 0.02 83 1025.0
20260905191517 65 0.0 0.0 0.00 0.02 0.02 83 1025.0
20260905190517 65 0.0 0.0 0.00 0.02 0.02 82 1024.9
20260905185517 65 0.0 0.0 0.00 0.02 0.02 81 1024.9
20260905184517 66 0.0 0.0 0.00 0.02 0.02 79 1024.6
20260905183517 66 0.0 0.0 0.00 0.02 0.02 79 1024.4
20260905182537 66 0.0 0.0 0.00 0.02 0.02 78 1024.3
20260905181517 67 0.0 0.0 0.00 0.02 0.02 78 1024.3
20260905180517 67 0.0 0.0 0.00 0.02 0.02 77 1024.1
20260905175537 68 0.0 0.0 0.00 0.02 0.02 77 1024.0
20260905174517 68 0.0 0.0 0.00 0.02 0.02 77 1024.0
20260905173517 68 0.0 0.0 0.00 0.02 0.02 76 1023.8
20260905172517 69 0.0 0.0 0.00 0.02 0.02 76 1023.8
20260905171517 69 0.0 0.0 0.00 0.02 0.02 76 1023.8
20260905170517 69 0.0 0.0 0.00 0.02 0.02 76 1023.7
20260905165517 69 0.0 2.0 0.00 0.02 0.02 75 1023.8
20260905164517 69 0.0 2.0 0.00 0.02 0.02 75 1023.7
20260905163517 69 0.0 1.0 0.00 0.02 0.02 74 1023.6
20260905162517 69 0.0 2.0 0.00 0.02 0.02 74 1023.5
20260905161517 69 0.0 1.0 0.00 0.02 0.02 75 1023.7
20260905160517 69 0.0 4.0 0.00 0.02 0.02 75 1023.6
20260905155517 69 0.0 3.0 0.00 0.02 0.02 75 1023.4
20260905154518 69 0.0 2.0 0.00 0.02 0.02 76 1023.4
20260905153537 69 0.0 2.0 0.00 0.02 0.02 76 1023.5
20260905152517 69 0.0 0.0 0.00 0.02 0.02 76 1023.5
20260905151517 69 0.0 2.0 0.00 0.02 0.02 76 1023.7